#timestamp,LO_Frequency,Hit,StdDev 
1560240015.8,286046995.6,Y
1560240035.6,286046996.9,P
1560240055.5,286046997.7,N
1560240075.3,286046997.4,P
1560240095.1,286046999.1,N
1560240115.9,286047000.5,N
1560240135.7,286047000.2,N
1560240155.5,286047001.1,N
1560240175.4,286047002.4,N
1560240195.2,286047002.1,N
1560240215.1,286046999.9,N
1560240216.0,286046999.9,N
1560240235.8,286046998.8,N
1560240255.6,286046999.3,N
1560240275.5,286046999.0,N
1560240295.3,286046997.1,N
1560240315.1,286046996.9,N
1560240335.9,286046999.5,N
1560240355.7,286046998.8,N
1560240375.6,286047000.5,N
1560240395.4,286047002.6,N
1560240415.2,286046999.8,N
1560240435.1,286047000.7,N
1560240436.0,286047000.7,N
1560240455.8,286046998.9,N
1560240475.6,286046998.4,N
1560240495.5,286046998.7,N
1560240515.3,286046999.4,N
1560240535.2,286046996.6,N
1560240555.9,286046997.0,N
1560240575.7,286046997.2,N
1560240595.6,286046999.1,N
1560240615.4,286046998.9,N
1560240635.2,286046998.1,N
1560240655.1,286047000.8,N
1560240656.0,286047000.8,N
1560240675.8,286047002.7,N
1560240695.7,286047001.5,N
1560240715.5,286046999.7,N
1560240735.3,286047000.1,N
1560240755.2,286047000.9,N
1560240775.0,286047000.1,N
1560240775.9,286047000.1,N
1560240795.7,286046999.8,N
1560240815.6,286047000.9,N
1560240835.4,286047000.5,N
1560240855.3,286046998.6,N
1560240875.1,286047000.6,N
1560240895.8,286046999.4,N
1560240915.7,286046998.7,N
1560240935.5,286046996.5,N
1560240955.4,286046997.2,N
1560240975.2,286046999.6,N
1560240995.0,286046999.3,N
1560240995.9,286046999.3,N
1560241015.8,286046998.9,N
1560241035.6,286047001.2,N
1560241055.5,286046999.7,N
1560241075.3,286047001.1,N
1560241095.2,286046998.4,N
1560241115.0,286046998.4,N
1560241115.9,286046998.4,N
1560241135.8,286046998.5,N
1560241155.6,286046998.9,N
1560241175.4,286046999.0,N
1560241195.3,286046998.6,N
1560241215.1,286046998.6,N
1560241235.8,286047002.3,N
1560241255.7,286047000.8,N
1560241275.5,286047000.5,N
1560241295.4,286047002.6,N
1560241315.2,286047002.3,N
1560241335.0,286047001.3,N
1560241335.9,286047001.3,N
1560241355.8,286047002.8,N
1560241375.6,286047001.0,N
1560241395.5,286046998.6,N
1560241415.3,286046998.1,N
1560241435.1,286047000.2,N
1560241455.9,286047000.8,N
1560241475.7,286047000.2,N
1560241495.5,286047000.9,N
1560241515.4,286046999.6,N
1560241535.2,286046998.1,N
1560241555.1,286047002.5,N
1560241556.0,286047002.5,N
1560241575.8,286047001.9,N
1560241595.6,286047004.2,N
1560241615.5,286047003.9,N
1560241635.3,286047001.8,N
1560241655.1,286047002.1,N
1560241675.9,286047002.5,N
1560241695.7,286047001.9,N
1560241715.6,286047001.9,N
1560241735.4,286047004.2,N
1560241755.2,286047003.2,N
1560241775.1,286047005.8,Y
1560241776.0,286047005.8,P
1560241795.8,286047003.7,N
1560241815.0,286047003.2,N
1560241815.9,286047003.2,N
1560241835.8,286047005.6,Y
1560241855.6,286047000.5,P
1560241875.5,286047000.7,N
1560241895.3,286047000.1,N
1560241915.1,286047002.8,N
1560241935.9,286046999.8,N
1560241955.8,286047000.0,N
1560241975.6,286047000.0,N
1560241995.5,286046998.1,N
1560242015.3,286047001.0,N
1560242035.1,286047001.1,N
1560242055.9,286046998.2,N
1560242075.7,286046998.4,N
1560242095.6,286046999.1,N
1560242115.4,286046999.2,N
1560242135.2,286046996.9,N
1560242155.1,286046996.8,N
1560242156.0,286046996.8,N
1560242175.8,286046999.2,N
1560242195.7,286046996.6,N
1560242215.5,286046997.5,N
1560242235.3,286046997.9,N
1560242255.2,286046995.7,N
1560242275.0,286046995.5,N
1560242275.9,286046995.5,N
1560242295.7,286046995.7,N
1560242315.6,286046995.7,N
1560242335.4,286046996.1,N
1560242355.3,286046995.4,N
1560242375.1,286046998.0,N
1560242376.0,286046998.0,N
1560242395.8,286046996.0,N
1560242415.7,286046996.0,N
1560242435.5,286046995.9,N
1560242455.4,286046994.0,Y
1560242475.2,286046997.8,P
1560242495.0,286046995.6,P
1560242495.9,286046995.6,P
1560242515.8,286046995.1,Y
1560242535.6,286046996.6,P
1560242555.5,286046998.9,P
1560242575.4,286046998.6,N
1560242595.2,286046998.8,N
1560242615.0,286046998.5,N
1560242615.9,286046998.5,N
1560242635.8,286046998.4,N
1560242655.6,286047001.2,N
1560242675.4,286046998.2,N
1560242695.3,286046998.2,N
1560242715.1,286046998.2,N
1560242735.9,286047000.8,N
1560242755.7,286046998.5,N
1560242775.5,286046998.1,N
1560242795.4,286046999.0,N
1560242815.2,286046998.5,N
1560242835.0,286046998.9,N
1560242835.9,286046998.9,N
1560242855.8,286047001.1,N
1560242875.8,286046998.8,N
1560242895.6,286046998.1,N
1560242915.5,286046998.2,N
1560242935.3,286047000.0,N
1560242955.1,286046999.7,N
1560242975.9,286047001.0,N
1560242995.7,286047000.9,N
1560243015.3,286046999.1,N
1560243035.1,286046999.0,N
1560243055.1,286046998.7,N
1560243075.9,286047000.7,N
1560243095.7,286047001.0,N
1560243115.5,286046998.1,N
1560243135.4,286047001.2,N
1560243155.2,286047000.7,N
1560243175.1,286046998.2,N
1560243176.0,286046998.2,N
1560243195.8,286047000.9,N
1560243215.7,286047002.4,N
1560243235.5,286047000.8,N
1560243255.4,286047000.1,N
1560243275.2,286046998.8,N
1560243295.0,286046999.3,N
1560243295.9,286046999.3,N
1560243315.8,286046998.5,N
1560243335.6,286047001.1,N
1560243355.4,286046998.7,N
1560243375.3,286047001.2,N
1560243395.1,286046998.5,N
1560243415.9,286046997.0,N
1560243435.7,286046998.9,N
1560243455.5,286046998.6,N
1560243475.4,286047001.0,N
1560243495.2,286046998.5,N
1560243515.1,286047000.7,N
1560243516.0,286047000.7,N
1560243535.8,286047001.0,N
1560243555.6,286046998.9,N
1560243575.5,286046996.7,N
1560243595.3,286047000.4,N
